Satellite-Ground Cal/Val Site Overpasses Predictions

Prediction of Satellite NPP Overpassing Cal/Val Site: Antarctic Dome C

Ground Cal/Val Site Location: Latitude: -75.10, Longitude: 123.35; Satellite-Ground Site NADIR distance within 100 km.

Table of predicted overpasses for the next 14.0 days since TLE Epoch: 4/6/2024
Interval Starting Time Ending Time Minimum Distance Time Minimum Distance (km)
1 04/06/2024 14:55:41 04/06/2024 14:56:10 04/06/2024 14:55:56 23.40
2 04/07/2024 14:36:59 04/07/2024 14:37:14 04/07/2024 14:37:06 83.83
3 04/08/2024 07:38:32 04/08/2024 07:38:59 04/08/2024 07:38:46 40.45
4 04/09/2024 07:19:46 04/09/2024 07:20:06 04/09/2024 07:19:56 69.31
5 04/11/2024 15:02:02 04/11/2024 15:02:25 04/11/2024 15:02:14 60.84
6 04/12/2024 14:43:12 04/12/2024 14:43:38 04/12/2024 14:43:25 48.46
7 04/13/2024 07:44:54 04/13/2024 07:45:13 04/13/2024 07:45:03 75.95
8 04/14/2024 07:26:01 04/14/2024 07:26:29 04/14/2024 07:26:15 31.68
9 04/16/2024 15:08:31 04/16/2024 15:08:34 04/16/2024 15:08:32 99.00
10 04/17/2024 14:49:28 04/17/2024 14:49:57 04/17/2024 14:49:42 12.45
